Location: La Geslinière
(47.9833°N, 1.2167°W)
Time: 22:56:23
(UTC+00:00)

Daily predictions for brighter satellites

Satellite Brightness Start Highest point End
(mag) Time Altitude Azimuth Time Altitude Azimuth Time Altitude Azimuth
Meteor 2-10 4.5 17:57:27 10° SSE 18:02:46 46° E 18:07:58 10° NNE
ARGOS 4.0 17:58:16 10° S 18:03:31 58° W 18:08:51 10° NNW
ATLAS 2AS CENTAUR R/B 4.5 17:58:55 10° WNW 18:05:01 26° NNW 18:10:53 10° NE
YAOGAN 1 3.3 18:02:58 10° SE 18:06:48 32° ENE 18:10:41 10° N
Okean O Rocket 2.4 18:06:53 10° SE 18:10:41 30° ENE 18:14:32 10° N
Cosmos 2084 3.9 18:07:44 10° WSW 18:11:28 54° NW 18:15:15 10° NE
SKYMED 2 3.5 18:09:53 10° NNE 18:14:15 69° ESE 18:18:34 10° S
Nadezhda 4 Rocket 4.4 18:09:27 10° SSE 18:15:17 41° E 18:21:06 10° NNE
Cosmos 2227 Rocket 4.5 18:11:24 10° NW 18:16:11 29° WSW 18:20:58 10° SSW
Cosmos 2285 Rocket 4.2 18:14:57 10° NNW 18:21:12 54° ENE 18:27:26 10° SE
PSLV R/B 3.5 18:19:11 10° SSE 18:22:51 77° ENE 18:26:31 10° N
Cosmos 1726 2.2 18:19:50 10° S 18:23:23 51° E 18:26:56 10° NNE
Cosmos 2322 Rocket 3.4 18:19:27 10° SE 18:23:32 21° E 18:27:37 10° NE
USA 186 3.9 18:22:41 11° E 18:23:51 13° ENE 18:25:24 10° NE
Cosmos 841 Rocket 3.8 18:22:46 10° NNW 18:27:56 69° WSW 18:33:01 10° S
Cosmos 1470 4.0 18:25:26 10° SE 18:28:13 19° E 18:31:01 10° NE
CZ-4B R/B 3.2 18:23:48 10° SSE 18:29:08 65° ENE 18:34:36 10° N
Cosmos 1980 Rocket 2.4 18:23:31 10° SSW 18:29:09 79° WNW 18:34:49 10° NNE
Cosmos 1378 Rocket 3.5 18:24:59 10° N 18:29:23 74° E 18:33:42 10° SSE
Cosmos 1975 Rocket 4.4 18:26:57 10° NNE 18:30:19 21° ENE 18:33:08 12° ESE
Timation 2 Rocket 4.2 18:24:28 10° NNW 18:30:57 80° WSW 18:37:06 10° SSE
ARGOS Delta rocket 4.0 18:26:18 10° NNE 18:31:30 59° E 18:36:24 10° S
DMSP B5D2-2 4.2 18:27:00 10° NNE 18:32:19 84° WNW 18:37:35 10° SSW
Cosmos 2292 Rocket 4.2 18:33:37 10° SSE 18:38:13 35° E 18:41:51 10° NNE
Meteor 2-14 Rocket 4.4 18:34:01 10° S 18:40:03 77° E 18:46:08 10° NNE
Cosmos 1733 Rocket 3.7 18:37:57 10° SSW 18:42:20 61° WNW 18:46:46 10° N
Cosmos 1850 Rocket 4.4 18:37:28 10° SSW 18:42:40 69° WNW 18:47:58 10° NNE
USA 215 3.4 18:38:32 10° NE 18:45:05 77° NNW 18:51:37 10° WSW
Cosmos 2369 4.4 18:41:18 10° SW 18:46:55 57° WNW 18:52:33 10° NNE
COBE Rocket 3.8 18:42:27 10° SSE 18:47:18 90° WSW 18:52:04 10° NNW
Cosmos 2221 Rocket 4.5 18:42:56 10° NNW 18:47:22 55° W 18:51:48 10° S
Cosmos 1844 Rocket 3.3 18:44:01 10° NNW 18:49:17 38° NE 18:52:59 18° ESE
Cosmos 2278 3.7 18:46:52 10° SSW 18:52:34 89° ESE 18:58:17 10° NNE
SL-16 R/B 2.4 18:48:03 10° S 18:53:26 47° ESE 18:58:51 10° NE
Cosmos 1570 Rocket 3.9 18:49:34 10° NNW 18:54:51 74° ENE 19:00:04 10° SSE
Landsat 5 4.5 18:52:05 10° NE 18:55:58 28° E 18:59:46 10° SSE
Cosmos 1092 Rocket 4.2 18:50:45 10° SSE 18:56:44 47° E 19:02:41 10° NNE
Resurs 01 Rocket 3.4 19:01:19 15° ENE 19:01:19 15° ENE 19:03:39 10° NNE
DMSP B5D1-3 4.4 18:56:22 10° NNE 19:01:28 67° ESE 19:06:33 10° S
COSMO-SKYMED 1 4.1 18:58:08 10° N 19:02:13 40° WNW 19:06:15 10° SW
Meteor 2-21 Rocket 4.3 18:56:44 10° S 19:02:46 80° E 19:08:50 10° NNE
SJ-6B 3.4 19:02:07 28° ESE 19:03:10 33° ENE 19:06:37 10° N
Cosmos 2278 Rocket 4.2 19:01:23 10° N 19:03:34 12° NNE 19:05:41 10° NE
HJ-1C 3.6 19:01:18 10° S 19:04:23 64° W 19:07:29 10° NNW
Cosmos 1437 Rocket 2.5 19:01:59 10° S 19:05:41 71° E 19:09:25 10° NNE
H-2A R/B 4.1 19:07:12 16° NE 19:07:12 16° NE 19:08:59 10° NNE
Cosmos 2263 Rocket 3.4 19:03:07 10° NW 19:08:28 43° WSW 19:13:47 10° S
Meteor 1-24 Rocket 3.5 19:05:08 10° N 19:10:26 65° ENE 19:15:47 10° SSE
Resurs 1-3 4.3 19:11:26 30° E 19:12:20 33° ENE 19:16:17 10° N
SL-4 R/B 3.1 19:10:49 10° WNW 19:15:05 45° SW 19:17:52 21° SSE
Meteor 2-16 Rocket 4.4 19:10:35 10° S 19:16:43 86° E 19:22:55 10° N
Feng Yun 1-1 Rocket 4.2 19:11:36 10° SSE 19:17:05 84° WSW 19:22:31 10° NNW
Cosmos 2084 Rocket 3.1 19:14:39 10° NW 19:18:30 79° NE 19:19:51 40° SE
USA 267 4.0 19:14:43 10° SSE 19:21:01 49° SW 19:27:21 10° WNW
Okean-O 2.8 19:20:30 35° ESE 19:21:58 49° ENE 19:26:15 10° N
ISS -0.9 19:20:21 10° WSW 19:21:58 13° SW 19:23:35 10° SSW
Cosmos 1486 Rocket 4.4 19:18:03 10° S 19:22:58 40° ESE 19:27:56 10° NE
CZ-4 R/B 2.0 19:19:07 10° S 19:23:14 60° WSW 19:27:23 10° NNW
Cosmos 2208 Rocket 4.1 19:18:06 10° NNW 19:23:31 83° WSW 19:28:16 14° SSE
OBJECT-B 1.6 19:24:56 30° N 19:24:56 30° N 19:26:24 10° N
Cosmos 1844 3.8 19:18:28 10° NNW 19:23:57 54° ENE 19:26:13 33° ESE
IGS 5A 3.5 19:24:38 40° SE 19:25:49 57° ENE 19:29:53 10° N
DNEPR-1 R/B 4.0 19:22:22 10° SSW 19:26:52 49° ESE 19:30:36 19° NE
Meteor 1-22 Rocket 4.1 19:22:39 10° S 19:28:04 82° E 19:33:45 10° NNE
Helios 1B 4.4 19:25:35 10° NNE 19:29:57 83° ESE 19:34:17 10° SSW
Cosmos 1300 Rocket 3.7 19:30:15 47° ESE 19:30:32 48° E 19:34:45 10° NNE
Cosmos 1908 Rocket 4.3 19:26:31 10° SSW 19:30:45 53° WNW 19:35:01 10° N
CSL-04 Debris 4.0 19:28:02 18° SSE 19:32:06 78° ENE 19:37:31 10° NNW
Cosmos 1428 Rocket 4.4 19:26:05 10° S 19:32:16 84° E 19:38:34 10° N
Cosmos 1627 Rocket 4.3 19:29:39 10° S 19:35:45 80° E 19:41:54 10° N
Cosmos 2195 Rocket 4.5 19:29:47 10° S 19:36:02 88° WNW 19:42:22 10° N
Cosmos 2360 Rocket 2.3 19:32:32 10° S 19:37:57 50° ESE 19:43:23 10° NE
Cosmos 1782 Rocket 3.5 19:34:33 10° SSW 19:38:54 81° W 19:43:17 10° N
USA 81 3.9 19:33:50 10° N 19:39:09 86° E 19:43:22 16° S
Cosmos 1025 Rocket 3.0 19:38:51 10° N 19:43:11 84° W 19:44:51 37° S
Okean O Rocket 3.4 19:43:05 10° SSW 19:46:59 31° W 19:50:56 10° NNW
Cosmos 968 Rocket 4.2 19:43:59 10° SW 19:49:08 55° WNW 19:54:18 10° NNE
Lacrosse 4 Rocket 1.2 19:46:10 10° SSW 19:50:15 86° ESE 19:50:17 85° E
Cosmos 2026 Rocket 4.0 19:46:15 10° SSW 19:52:19 80° W 19:58:26 10° N
USA 186 2.7 19:55:51 49° W 19:55:51 49° W 19:59:01 10° NNW
CSL-04 Rocket 3.8 19:55:05 27° S 19:58:04 74° WSW 20:03:31 10° NNW
ATLAS 2AS CENTAUR R/B 4.2 19:52:33 10° NW 19:58:28 25° NNE 20:01:35 19° NE
BREEZE-M R/B 4.4 19:56:56 10° WSW 19:58:03 30° WSW 19:58:03 30° WSW
MOS 1 4.4 20:01:33 54° ENE 20:01:44 54° ENE 20:07:16 10° N
Cosmos 1470 4.3 20:00:23 10° SW 20:03:55 34° WNW 20:07:28 10° N
Cosmos 1553 Rocket 3.9 19:57:31 10° N 20:03:56 85° E 20:06:33 39° SSE
Landsat 7 3.7 20:04:06 73° S 20:04:32 86° WSW 20:09:18 10° NNW
deb Chang Zheng 4 4.1 20:05:56 46° N 20:05:56 46° N 20:08:57 10° N
Cosmos 2322 Rocket 2.4 20:01:17 10° SW 20:06:59 71° WNW 20:12:43 10° NNE
SPOT 1/Viking Rocket 3.8 20:07:53 54° NE 20:07:53 54° NE 20:12:22 10° N
Cosmos 2237 4.5 20:02:08 10° SW 20:07:49 69° WNW 20:13:31 10° NNE
Cosmos 1975 Rocket 4.1 20:04:12 10° NNW 20:08:24 44° W 20:10:19 27° SSW
NOSS 3-4 (A) 4.1 20:04:07 10° NW 20:10:42 51° NE 20:12:04 46° ENE
NOSS 3-4 (C) 4.1 20:04:14 10° NW 20:10:48 51° NE 20:12:10 45° ENE
Ariane Rocket 4.0 20:16:26 34° NNE 20:16:26 34° NNE 20:19:46 10° N
NOSS 3-3 (A) 3.7 20:15:03 10° SSW 20:20:03 70° S 20:20:03 70° S
NOSS 3-3 (C) 3.8 20:15:08 10° SSW 20:19:58 66° S 20:19:58 66° S
Aureole 1 Rocket 3.9 20:17:37 10° SSW 20:25:02 79° ESE 20:30:52 10° NNE
USA 281 4.1 20:27:40 32° NE 20:27:40 32° NE 20:33:09 10° NNW
USA 215 4.1 20:24:15 25° NE 20:27:40 44° N 20:33:46 10° W
Cosmos 1844 Rocket 3.7 20:27:55 10° NW 20:33:15 42° WSW 20:34:40 35° SW
Resurs 01 Rocket 3.0 20:38:53 36° NNW 20:38:53 36° NNW 20:41:33 10° NNW
SL-16 R/B 3.7 20:32:34 10° WSW 20:37:42 34° NW 20:42:52 10° NNE
Cosmos 2315 Rocket 4.4 20:32:52 10° N 20:37:56 51° NNE 20:37:56 51° NNE
Terra 4.2 20:42:43 14° NNE 20:42:43 14° NNE 20:43:36 10° N
Cosmos 1943 Rocket 4.2 20:36:30 10° N 20:38:59 16° NNE 20:38:59 16° NNE
H-2A R/B 4.5 20:43:40 24° NW 20:43:40 24° NW 20:45:20 10° NNW
Cosmos 2278 Rocket 3.4 20:43:51 10° NNW 20:47:32 34° NNE 20:47:32 34° NNE
Cosmos 2333 Rocket 4.5 21:18:31 15° NNE 21:18:31 15° NNE 21:19:30 10° NNE
Cosmos 2360 Rocket 3.7 21:17:07 10° WSW 21:22:10 33° NW 21:27:14 10° NNE
ATLAS 2AS CENTAUR R/B 3.7 21:44:04 10° NW 21:49:00 40° N 21:49:00 40° N
USA 215 4.5 22:11:36 37° NNW 22:11:36 37° NNW 22:16:01 10° WNW
